This is the latest recevied weather packets stored in our database for station/object DL4ABR-6. If no packets are shown the sender has not sent any weather packets the latest 1 day(s).
| Time | Temp. | Humidity | Pressure | Rain* | Wind** | Luminosity | Snow |
|---|---|---|---|---|---|---|---|
| 1778041595 | 8.33° C | 99% | 1001.8 hPa | 10.41 mm | 0 m/s | - | - |
| 1778040715 | 8.33° C | 99% | 1002 hPa | 9.14 mm | 0 m/s | - | - |
| 1778039920 | 8.33° C | 99% | 1002.1 hPa | 8.13 mm | 0 m/s | - | - |
| 1778039195 | 8.33° C | 99% | 1001.9 hPa | 7.11 mm | 0 m/s | - | - |
| 1778038335 | 8.33° C | 99% | 1002 hPa | 6.35 mm | 0 m/s | - | - |
| 1778037530 | 8.89° C | 99% | 1002.5 hPa | 5.59 mm | 0 m/s | - | - |
| 1778036730 | 8.89° C | 99% | 1002.3 hPa | 5.08 mm | 0 m/s | - | - |
| 1778035920 | 8.89° C | 99% | 1002.4 hPa | 4.06 mm | 0 m/s | - | - |
| 1778035050 | 9.44° C | 99% | 1002.5 hPa | 3.56 mm | 0.45 m/s, 123° | - | - |
| 1778034320 | 9.44° C | 99% | 1002.6 hPa | 2.79 mm | 0 m/s | - | - |
| 1778033525 | 9.44° C | 99% | 1002.6 hPa | 2.29 mm | 0 m/s | - | - |
| 1778032635 | 9.44° C | 99% | 1002.5 hPa | 1.52 mm | 0 m/s | - | - |
| 1778031875 | 10° C | 99% | 1002.8 hPa | 1.27 mm | 0 m/s | - | - |
| 1778031140 | 10° C | 99% | 1002.8 hPa | 0.76 mm | 0 m/s | - | - |
| 1778030335 | 10° C | 99% | 1002.6 hPa | 0.51 mm | 0 m/s | - | - |
| 1778029555 | 10° C | 99% | 1002.9 hPa | 0.51 mm | 0 m/s | - | - |
| 1778028784 | 10° C | 99% | 1002.8 hPa | 0.25 mm | 0 m/s | - | - |
| 1778027935 | 10.56° C | 99% | 1003.1 hPa | 0 mm | 0 m/s | - | - |
| 1778027080 | 10.56° C | 99% | 1003.1 hPa | 0 mm | 0 m/s | - | - |
| 1778026260 | 10.56° C | 99% | 1003.2 hPa | 0 mm | 0 m/s | - | - |
| 1778025437 | 10.56° C | 99% | 1003.6 hPa | 0 mm | 0 m/s | - | - |
| 1778024710 | 10.56° C | 99% | 1003.6 hPa | 0 mm | 0 m/s | - | - |
| 1778023950 | 10.56° C | 99% | 1003.7 hPa | 0 mm | 0 m/s | - | - |
| 1778023055 | 10.56° C | 99% | 1003.8 hPa | 0 mm | 0 m/s | - | - |
| 1778022300 | 10.56° C | 99% | 1003.6 hPa | 0 mm | 0 m/s | - | - |
* Rain since midnight (hover to see other rain measurements)
** Current wind speed in m/s (hover to see current wind gust speed)